Weather History for Seward, AK

Change the Weather History Date:

Friday, January 31, 2014

  Actual Average Record
Temperature  
Mean Temperature 36 °F -  
Max Temperature 39 °F 31 °F 51 °F (1963)
Min Temperature 32 °F 22 °F -6 °F (1999)
Degree Days  
Heating Degree Days 30    
Moisture  
Dew Point 23 °F    
Average Humidity 63    
Maximum Humidity 75    
Minimum Humidity 51    
Precipitation  
Precipitation 0.00 in - - ()
Sea Level Pressure  
Sea Level Pressure 30.17 in    
Wind  
Wind Speed 14 mph (NNE)    
Max Wind Speed 18 mph    
Max Gust Speed 30 mph    
Visibility 10 miles    
Events      
Averages and records for this station are not official NWS values.
T = Trace of Precipitation, MM = Missing Value Source: NWS Daily Summary

Daily Weather History Graph

Daily Weather History Graph

Search for Another Location

Airport:

Trip Planner

Search our weather history database for the weather conditions in past years. The results will help you decide how hot, cold, wet, or windy it might be!

Date:

Astronomy

Jan. 31, 2014 Rise Set
Actual Time 9:13 AM AKST 5:09 PM AKST
Civil Twilight 8:26 AM AKST 5:57 PM AKST
Nautical Twilight 7:35 AM AKST 6:48 PM AKST
Astronomical Twilight 6:46 AM AKST 7:37 PM AKST
Moon 8:59 AM AKST (1/31) 7:23 PM AKST (1/31)
Length of Visible Light 9h 31m
Length of Day
7h 55m
New Moon, 1% of the Moon is Illuminated
Jan 31
New Moon
Feb 6
First Quarter
Feb 14
Full
Feb 22
Last Quarter
Feb 28
New

Hourly Weather History & Observations

Time (AKST) Temp. Windchill Dew Point Humidity Pressure Visibility Wind Dir Wind Speed Gust Speed Precip Events Conditions
12:53 AM 35.1 °F 25.5 °F 26.1 °F 70% 30.16 in 10.0 mi North 15.0 mph 24.2 mph N/A   Clear
1:53 AM 35.1 °F 25.2 °F 25.0 °F 67% 30.16 in 10.0 mi North 16.1 mph 26.5 mph N/A   Clear
3:53 AM 32.0 °F 21.2 °F 25.0 °F 75% 30.15 in 10.0 mi NNE 16.1 mph 23.0 mph N/A   Clear
4:53 AM 33.1 °F 23.9 °F 25.0 °F 72% 30.15 in 10.0 mi NNE 12.7 mph 21.9 mph N/A   Clear
5:53 AM 32.0 °F 22.1 °F 25.0 °F 75% 30.15 in 10.0 mi North 13.8 mph - N/A   Clear
6:53 AM 32.0 °F 22.1 °F 24.1 °F 73% 30.15 in 10.0 mi North 13.8 mph 19.6 mph N/A   Clear
7:53 AM 32.0 °F 22.5 °F 24.1 °F 73% 30.15 in 10.0 mi NNE 12.7 mph - N/A   Clear
8:53 AM 32.0 °F 22.5 °F 24.1 °F 73% 30.15 in 10.0 mi NNE 12.7 mph 21.9 mph N/A   Clear
9:53 AM 32.0 °F 22.1 °F 24.1 °F 73% 30.16 in 10.0 mi NNE 13.8 mph 21.9 mph N/A   Clear
10:53 AM 34.0 °F 24.6 °F 24.1 °F 67% 30.16 in 10.0 mi NNE 13.8 mph 21.9 mph N/A   Clear
11:53 AM 36.0 °F 27.5 °F 24.1 °F 62% 30.17 in 10.0 mi NNE 12.7 mph 23.0 mph N/A   Clear
12:53 PM 37.0 °F 29.3 °F 24.1 °F 59% 30.17 in 10.0 mi NNE 11.5 mph - N/A   Clear
1:53 PM 39.9 °F 32.1 °F 24.1 °F 53% 30.17 in 10.0 mi NNE 13.8 mph 20.7 mph N/A   Clear
2:53 PM 39.9 °F 32.9 °F 23.0 °F 51% 30.16 in 10.0 mi NNE 11.5 mph 21.9 mph N/A   Clear
3:53 PM 39.0 °F 31.8 °F 23.0 °F 53% 30.16 in 10.0 mi NNE 11.5 mph 25.3 mph N/A   Clear
4:53 PM 37.9 °F 29.6 °F 21.9 °F 53% 30.17 in 10.0 mi North 13.8 mph 24.2 mph N/A   Clear
5:53 PM 37.0 °F 27.7 °F 21.9 °F 54% 30.18 in 10.0 mi NNE 16.1 mph 24.2 mph N/A   Clear
6:53 PM 36.0 °F 26.3 °F 21.0 °F 55% 30.18 in 10.0 mi North 16.1 mph 29.9 mph N/A   Clear
7:53 PM 36.0 °F 26.3 °F 21.9 °F 57% 30.19 in 10.0 mi North 16.1 mph 26.5 mph N/A   Clear
8:53 PM 36.0 °F 25.6 °F 21.9 °F 57% 30.19 in 10.0 mi NNE 18.4 mph 26.5 mph N/A   Clear
9:53 PM 34.0 °F 24.2 °F 21.9 °F 61% 30.20 in 10.0 mi NNE 15.0 mph 27.6 mph N/A   Clear
10:53 PM 34.0 °F 23.0 °F 21.9 °F 61% 30.20 in 10.0 mi NNE 18.4 mph 27.6 mph N/A   Clear
11:53 PM 35.1 °F 25.2 °F 21.9 °F 59% 30.21 in 10.0 mi North 16.1 mph 23.0 mph N/A   Clear